Вернуться в каталог

NOAA 16 DEB

LostSSO
NORAD 41524·DEBRIS·🇺🇸 United States

Запущен Sep 21, 2000 с Vandenberg Space Force Base

Loading…

Ближайшие Пролёты (ближайшие 24 часа)

TLE

УстаревшееSource: Space-Track

Эпоха: Aug 27, 2016, 00:06 UTC

1 41524U 00055MY  16240.00441139  .00000241  00000-0  13866-3 0  9995
2 41524  98.8815 311.1021 0033454  61.3223 299.1308 14.18105262 17945

Отслеживайте NOAA 16 DEB в реальном времени с AllMySat

Download on the App Store